COSMOS 1670 DEB, 44569

Orbit data source: Space-Track

COSMOS 1670 DEB, 44569 is space debris in LEO originally from a launch on Thu, 01 Aug 1985 UTC launched from the Tyuratam Missile And Space Complex (TTMTR). Debris objects in space refer to the collection of defunct objects orbiting the Earth. Examples of debris include non-operational satellites, rocket bodies, and fragments generated from explosions, collisions, or faulty payload assembly.

Loading next visibility...
Identifier
44569, 1985-064F
Orbit
LEO
Country
Flag of CISCIS
Related business
Manufacturer
Unknown
Mission
Spacecraft
Bus & Motor
Unknown
Mass
Unknown
Launch date (UTC)
1985-08-01 (41 years ago)
Launch vehicle
Unknown
Launch site
Tyuratam Missile And Space Complex (TTMTR)
Object type
Payload
Rocket body
Debris
Shape & HBR
Unknown shape, 0.1 m
Radar Cross Section
Small (<0.1 m²)

Expand to show TLE details & history
Last TLE update: 2 days ago

TLE from 2 days ago
0 COSMOS 1670 DEB
1 44569U 85064F   26171.21310080  .00020255  00000-0  35743-2 0  9991
2 44569  64.8976 333.6728 0029147 323.4850 215.2255 14.67227865106591
Epoch: 2026-06-20T05:06Z
TLE epoch observation values (Epoch: 2026-06-20T05:06:51.909Z)
Latitude
1.24964°
Longitude
167.94317°
Altitude
688.577 km
Speed
7.504 km/s
True Right ascension
10h 12m 21s
True Declination
1° 14' 32"
Sunlit
Object was in daylight at epoch
Visualization orbit readout
Latitude
Unknown
Longitude
Unknown
Altitude
Unknown
Speed
Unknown
Apparent Right ascension
Unknown
Apparent Declination
Unknown
Sunlit
N/A
Visualization observer readout
Local Sidereal Time
23:18:58
Azimuth
Unknown
Elevation
Unknown
Doppler factor
Unknown
Orbital elements
Apogee altitude
689.038 km
Perigee altitude
647.96 km
Semi-major axis
7,046.636 km
Eccentricity
0.00291
Inclination
64.8976°
RAAN
333.6728°
Arg. of periapsis
323.485°
True anomaly
215.03342°
Mean anomaly
215.2255°
Eccentric anomaly
215.1294°
Mean motion
3.66919 °/min
Orbital period
98.11 mins
BSTAR
0.0035743
Loading maneuver chart data...
Computing Atmospheric mass density...
Loading historical data...
Loading historical data...
Loading historical data...
Loading historical data...
Loading historical data...
Loading historical data...
Loading historical data...

Documentation

Showing up to 5 results
|